SBI7014 UNTT-UNNT

Flight info

Callsign SBI7014
Flight time 0h 34m
Altitude 30000
Route NN1H NN G829 REGMI REGM1P
Aircraft E170/M-VGDW/C

Departure

Time 2026-04-22 06:42
Airport Tomsk Kamov Airport (UNTT)

Arrival

Time 2026-04-22 07:16
Airport Novosibirsk Tolmachevo Airport (UNNT)
Time Latitude Longitude Altitude Speed Heading
2026-04-22 06:30 56.38800 85.21072 570 ft 0 kts 301°
2026-04-22 06:36 56.38797 85.21081 570 ft 2 kts 301°
2026-04-22 06:36 56.38789 85.21104 571 ft 2 kts 301°
2026-04-22 06:37 56.38782 85.21126 571 ft 2 kts 301°
2026-04-22 06:37 56.38774 85.21149 571 ft 2 kts 308°
2026-04-22 06:37 56.38762 85.21161 572 ft 2 kts 359°
2026-04-22 06:37 56.38750 85.21155 572 ft 1 kts 34°
2026-04-22 06:38 56.38749 85.21153 572 ft 0 kts 34°
2026-04-22 06:39 56.38774 85.21184 571 ft 8 kts 35°
2026-04-22 06:39 56.38848 85.21270 569 ft 16 kts 34°
2026-04-22 06:39 56.38960 85.21416 567 ft 21 kts 52°
2026-04-22 06:40 56.38940 85.21564 567 ft 0 kts 128°
2026-04-22 06:40 56.38937 85.21571 567 ft 2 kts 127°
2026-04-22 06:40 56.38917 85.21622 567 ft 8 kts 124°
2026-04-22 06:40 56.38861 85.21703 568 ft 11 kts 204°
2026-04-22 06:41 56.38713 85.21529 575 ft 58 kts 212°
2026-04-22 06:41 56.38163 85.20888 586 ft 125 kts 212°
2026-04-22 06:41 56.37322 85.19874 757 ft 157 kts 211°
2026-04-22 06:41 56.36368 85.18767 1192 ft 179 kts 210°
2026-04-22 06:42 56.35202 85.17416 1515 ft 219 kts 210°
2026-04-22 06:42 56.33946 85.15395 1776 ft 265 kts 228°
2026-04-22 06:42 56.32696 85.12712 2365 ft 292 kts 228°
2026-04-22 06:42 56.31382 85.09907 3406 ft 299 kts 228°
2026-04-22 06:43 56.30072 85.07124 4690 ft 295 kts 230°
2026-04-22 06:43 56.28780 85.04385 6047 ft 287 kts 231°
2026-04-22 06:43 56.27523 85.01724 7255 ft 283 kts 232°
2026-04-22 06:43 56.26248 84.99027 8269 ft 284 kts 233°
2026-04-22 06:44 56.24983 84.96355 9150 ft 289 kts 233°
2026-04-22 06:44 56.23673 84.93594 10089 ft 290 kts 233°
2026-04-22 06:44 56.22414 84.90945 11225 ft 282 kts 234°
2026-04-22 06:44 56.21161 84.88308 12204 ft 280 kts 234°
2026-04-22 06:45 56.19899 84.85653 13035 ft 282 kts 235°
2026-04-22 06:45 56.18630 84.82986 13775 ft 287 kts 235°
2026-04-22 06:45 56.17664 84.79948 14443 ft 281 kts 262°
2026-04-22 06:45 56.17656 84.76491 15162 ft 280 kts 279°
2026-04-22 06:46 56.17900 84.73083 15915 ft 282 kts 279°
2026-04-22 06:46 56.18169 84.69583 16661 ft 284 kts 280°
2026-04-22 06:46 56.18442 84.66117 17374 ft 286 kts 280°
2026-04-22 06:46 56.18723 84.62588 18052 ft 289 kts 280°
2026-04-22 06:47 56.19011 84.58997 18740 ft 292 kts 280°
2026-04-22 06:47 56.19297 84.55411 19428 ft 295 kts 280°
2026-04-22 06:47 56.19584 84.51804 20103 ft 297 kts 280°
2026-04-22 06:47 56.19877 84.48103 20789 ft 299 kts 279°
2026-04-22 06:48 56.20168 84.44419 21447 ft 301 kts 279°
2026-04-22 06:48 56.20457 84.40739 22094 ft 303 kts 279°
2026-04-22 06:48 56.20750 84.36996 22714 ft 306 kts 279°
2026-04-22 06:48 56.21044 84.33229 23325 ft 308 kts 279°
2026-04-22 06:49 56.21339 84.29425 23927 ft 311 kts 279°
2026-04-22 06:49 56.21636 84.25591 24527 ft 313 kts 279°
2026-04-22 06:49 56.21935 84.21704 25104 ft 316 kts 279°
2026-04-22 06:49 56.22230 84.17853 25671 ft 318 kts 279°
2026-04-22 06:50 56.22532 84.13914 26245 ft 320 kts 279°
2026-04-22 06:50 56.22833 84.09948 26825 ft 322 kts 279°
2026-04-22 06:50 56.23130 84.05949 27392 ft 324 kts 277°
2026-04-22 06:50 56.23109 84.01935 27924 ft 329 kts 265°
2026-04-22 06:51 56.22573 83.97910 28448 ft 336 kts 255°
2026-04-22 06:51 56.21564 83.94106 28978 ft 344 kts 243°
2026-04-22 06:51 56.20083 83.90685 29466 ft 354 kts 232°
2026-04-22 06:51 56.18401 83.87507 29946 ft 351 kts 234°
2026-04-22 06:52 56.16779 83.84246 30018 ft 352 kts 235°
2026-04-22 06:52 56.13575 83.77596 30031 ft 355 kts 236°
2026-04-22 06:53 56.10358 83.70872 30018 ft 354 kts 236°
2026-04-22 06:53 56.07159 83.64225 30015 ft 356 kts 235°
2026-04-22 06:54 56.03903 83.57594 30016 ft 356 kts 235°
2026-04-22 06:54 56.00633 83.50948 30021 ft 356 kts 235°
2026-04-22 06:55 55.97390 83.44376 30022 ft 356 kts 235°
2026-04-22 06:55 55.95738 83.41029 29325 ft 366 kts 234°
2026-04-22 06:55 55.94059 83.37638 28263 ft 367 kts 234°
2026-04-22 06:55 55.92380 83.34255 27322 ft 366 kts 233°
2026-04-22 06:56 55.90711 83.30892 26164 ft 364 kts 233°
2026-04-22 06:56 55.89065 83.27583 25086 ft 359 kts 233°
2026-04-22 06:56 55.87440 83.24320 24033 ft 355 kts 233°
2026-04-22 06:56 55.85829 83.21088 23002 ft 350 kts 233°
2026-04-22 06:57 55.84241 83.17908 21989 ft 345 kts 233°
2026-04-22 06:57 55.82654 83.14732 21195 ft 338 kts 233°
2026-04-22 06:57 55.81123 83.11674 20503 ft 334 kts 233°
2026-04-22 06:57 55.79601 83.08637 19804 ft 330 kts 233°
2026-04-22 06:58 55.77901 83.05926 19106 ft 332 kts 220°
2026-04-22 06:58 55.76028 83.03654 18433 ft 329 kts 219°
2026-04-22 06:58 55.74133 83.01372 17777 ft 325 kts 218°
2026-04-22 06:58 55.72284 82.99151 17093 ft 322 kts 218°
2026-04-22 06:59 55.70452 82.96956 16437 ft 318 kts 218°
2026-04-22 06:59 55.68631 82.94775 15790 ft 315 kts 218°
2026-04-22 06:59 55.66838 82.92630 15144 ft 312 kts 218°
2026-04-22 06:59 55.65066 82.90514 14504 ft 308 kts 218°
2026-04-22 07:00 55.63306 82.88413 13863 ft 305 kts 218°
2026-04-22 07:00 55.61562 82.86335 13230 ft 301 kts 218°
2026-04-22 07:00 55.59851 82.84299 12609 ft 298 kts 218°
2026-04-22 07:00 55.58160 82.82288 11985 ft 294 kts 218°
2026-04-22 07:01 55.56472 82.80282 11354 ft 291 kts 218°
2026-04-22 07:01 55.54825 82.78328 10751 ft 287 kts 218°
2026-04-22 07:01 55.53186 82.76386 10213 ft 281 kts 218°
2026-04-22 07:01 55.51579 82.74483 9775 ft 273 kts 218°
2026-04-22 07:02 55.50035 82.72656 9339 ft 268 kts 218°
2026-04-22 07:02 55.48492 82.70870 8802 ft 269 kts 211°
2026-04-22 07:02 55.46638 82.70145 8143 ft 281 kts 183°
2026-04-22 07:02 55.44681 82.70248 7376 ft 286 kts 181°
2026-04-22 07:03 55.42724 82.69959 6810 ft 277 kts 195°
2026-04-22 07:03 55.40953 82.69038 6334 ft 263 kts 202°
2026-04-22 07:03 55.39302 82.67857 5895 ft 253 kts 205°
2026-04-22 07:03 55.37706 82.66550 5505 ft 250 kts 206°
2026-04-22 07:04 55.36157 82.65199 5324 ft 250 kts 207°
2026-04-22 07:04 55.34602 82.63801 5156 ft 252 kts 207°
2026-04-22 07:04 55.33046 82.62380 5043 ft 250 kts 207°
2026-04-22 07:04 55.31538 82.60993 4787 ft 246 kts 207°
2026-04-22 07:05 55.30046 82.59617 4446 ft 242 kts 206°
2026-04-22 07:05 55.28564 82.58249 4112 ft 240 kts 206°
2026-04-22 07:05 55.27094 82.56892 3789 ft 239 kts 205°
2026-04-22 07:05 55.25617 82.55527 3467 ft 239 kts 205°
2026-04-22 07:06 55.24135 82.54162 3145 ft 240 kts 204°
2026-04-22 07:06 55.22669 82.52811 2830 ft 241 kts 204°
2026-04-22 07:06 55.21186 82.51445 2562 ft 240 kts 204°
2026-04-22 07:06 55.19737 82.50111 2325 ft 234 kts 204°
2026-04-22 07:07 55.18298 82.48788 2087 ft 234 kts 204°
2026-04-22 07:07 55.16865 82.47472 2016 ft 233 kts 204°
2026-04-22 07:07 55.15420 82.46146 2020 ft 234 kts 204°
2026-04-22 07:07 55.13981 82.44826 2012 ft 234 kts 203°
2026-04-22 07:08 55.12557 82.43520 2009 ft 234 kts 204°
2026-04-22 07:08 55.11114 82.42198 2008 ft 233 kts 204°
2026-04-22 07:08 55.09684 82.40890 2010 ft 234 kts 204°
2026-04-22 07:08 55.08247 82.39575 2016 ft 229 kts 204°
2026-04-22 07:09 55.06895 82.38337 2019 ft 214 kts 203°
2026-04-22 07:09 55.05589 82.37145 2001 ft 211 kts 203°
2026-04-22 07:09 55.04323 82.35989 1980 ft 199 kts 202°
2026-04-22 07:09 55.03122 82.34893 1987 ft 192 kts 201°
2026-04-22 07:10 55.01949 82.33827 2005 ft 192 kts 201°
2026-04-22 07:10 55.00762 82.32753 2000 ft 192 kts 199°
2026-04-22 07:10 54.99513 82.32520 2011 ft 177 kts 154°
2026-04-22 07:10 54.98632 82.33807 2021 ft 166 kts 110°
2026-04-22 07:11 54.98542 82.35760 2071 ft 163 kts 82°
2026-04-22 07:11 54.98718 82.37593 2158 ft 143 kts 82°
2026-04-22 07:11 54.98869 82.39175 2188 ft 125 kts 82°
2026-04-22 07:11 54.99005 82.40638 2184 ft 120 kts 82°
2026-04-22 07:12 54.99137 82.42065 2190 ft 121 kts 83°
2026-04-22 07:12 54.99268 82.43526 2196 ft 122 kts 83°
2026-04-22 07:12 54.99404 82.44977 2201 ft 121 kts 82°
2026-04-22 07:12 54.99540 82.46417 2178 ft 123 kts 82°
2026-04-22 07:13 54.99670 82.47819 2026 ft 120 kts 81°
2026-04-22 07:13 54.99794 82.49182 1868 ft 112 kts 81°
2026-04-22 07:13 54.99913 82.50506 1736 ft 112 kts 81°
2026-04-22 07:13 55.00039 82.51847 1584 ft 113 kts 80°
2026-04-22 07:14 55.00165 82.53195 1434 ft 113 kts 80°
2026-04-22 07:14 55.00288 82.54562 1284 ft 113 kts 81°
2026-04-22 07:14 55.00402 82.55912 1130 ft 113 kts 81°
2026-04-22 07:14 55.00511 82.57272 1001 ft 114 kts 81°
2026-04-22 07:15 55.00636 82.58652 794 ft 115 kts 79°
2026-04-22 07:15 55.00772 82.60026 690 ft 115 kts 79°
2026-04-22 07:15 55.00903 82.61406 529 ft 117 kts 78°
2026-04-22 07:15 55.01036 82.62793 374 ft 111 kts 79°
2026-04-22 07:16 55.01143 82.63959 350 ft 79 kts 79°
2026-04-22 07:16 55.01206 82.64613 350 ft 32 kts 79°
2026-04-22 07:16 55.01229 82.64861 351 ft 18 kts 81°
2026-04-22 07:16 55.01199 82.65044 352 ft 17 kts 154°
2026-04-22 07:17 55.01139 82.65067 352 ft 0 kts 171°
2026-04-22 07:18 55.01136 82.65068 352 ft 1 kts 171°
2026-04-22 07:18 55.01109 82.65076 352 ft 6 kts 171°
2026-04-22 07:18 55.01047 82.65093 352 ft 11 kts 171°
2026-04-22 07:18 55.00953 82.65121 352 ft 15 kts 171°
2026-04-22 07:19 55.00883 82.65219 352 ft 14 kts 92°
2026-04-22 07:19 55.00893 82.65394 354 ft 14 kts 79°
2026-04-22 07:19 55.00910 82.65563 355 ft 14 kts 81°
2026-04-22 07:19 55.00926 82.65734 356 ft 13 kts 80°
2026-04-22 07:20 55.00939 82.65902 356 ft 14 kts 82°
2026-04-22 07:20 55.00958 82.66082 356 ft 15 kts 72°
2026-04-22 07:20 55.00997 82.66264 355 ft 15 kts 67°
2026-04-22 07:20 55.01041 82.66446 355 ft 16 kts 75°
2026-04-22 07:21 55.01002 82.66533 355 ft 7 kts 173°
2026-04-22 07:21 55.00955 82.66547 355 ft 3 kts 168°
2026-04-22 07:21 55.00950 82.66548 355 ft 0 kts 169°